QPF
0.00 0.00 0.00 0.00 0.00 0.00 0.01 0.01 0.01 0.00 0.00 0.00 0.00 0.00 0.00 0.00 0.00 0.00 0.00 0.00 0.00 0.00 0.00 0.00 0.00 0.00 0.00 0.00 0.00 0.00 0.00 0.00 0.00 0.00 0.00 0.00 0.00 0.00 0.00 0.00 0.00 0.00 0.00 0.00
0.00 0.00 0.00 0.00 0.00 0.00 0.00 0.00 0.00 0.00 0.00 0.00 0.00 0.00 0.00 0.00 0.00 0.00 0.00 0.00 0.00 0.00 0.00 0.00 0.00 0.00 0.00 0.01 0.00 0.00 0.00 0.00 0.00 0.00 0.00 0.00 0.00 0.00 0.00 0.00 0.00 0.00 0.00 0.00
0.01 0.00 0.00 0.00 0.00 0.00 0.00 0.00 0.00 0.00 0.00 0.00 0.00 0.00 0.00 0.00 0.00 0.00 0.00 0.00 0.00 0.00 0.00 0.00 0.00 0.00 0.00 0.01 0.01 0.01 0.00 0.00 0.00 0.00 0.00 0.00 0.00 0.00 0.00 0.00 0.00 0.00 0.00 0.01
0.02 0.01 0.01 0.00 0.00 0.00 0.00 0.00 0.00 0.00 0.00 0.00 0.00 0.00 0.00 0.00 0.00 0.00 0.00 0.00 0.00 0.00 0.00 0.00 0.00 0.00 0.00 0.00 0.01 0.01 0.01 0.00 0.00 0.00 0.00 0.00 0.00 0.00 0.00 0.00 0.00 0.01 0.01 0.00
0.03 0.01 0.00 0.00 0.00 0.00 0.00 0.01 0.01 0.00 0.00 0.00 0.00 0.00 0.00 0.00 0.00 0.00 0.00 0.00 0.00 0.00 0.00 0.00 0.00 0.00 0.00 0.00 0.01 0.01 0.01 0.01 0.00 0.00 0.00 0.00 0.00 0.01 0.01 0.01 0.01 0.01 0.00 0.00
0.03 0.02 0.00 0.00 0.00 0.00 0.00 0.01 0.01 0.00 0.00 0.00 0.00 0.00 0.00 0.00 0.00 0.00 0.00 0.00 0.00 0.00 0.00 0.00 0.00 0.00 0.00 0.00 0.00 0.00 0.00 0.00 0.00 0.00 0.00 0.00 0.00 0.01 0.01 0.01 0.01 0.01 0.00 0.00
0.02 0.02 0.01 0.00 0.00 0.00 0.01 0.01 0.00 0.00 0.00 0.00 0.00 0.00 0.00 0.00 0.00 0.00 0.00 0.00 0.00 0.00 0.00 0.00 0.00 0.00 0.00 0.00 0.00 0.00 0.00 0.00 0.00 0.00 0.00 0.00 0.00 0.01 0.01 0.01 0.01 0.01 0.01 0.01
0.01 0.02 0.01 0.00 0.00 0.01 0.01 0.00 0.00 0.00 0.00 0.00 0.00 0.00 0.00 0.00 0.00 0.00 0.00 0.00 0.00 0.00 0.00 0.00 0.00 0.00 0.00 0.00 0.00 0.00 0.00 0.00 0.00 0.00 0.00 0.00 0.00 0.00 0.01 0.01 0.01 0.01 0.01 0.01
0.01 0.01 0.00 0.00 0.00 0.00 0.00 0.00 0.00 0.00 0.00 0.00 0.00 0.00 0.00 0.00 0.00 0.00 0.00 0.00 0.00 0.00 0.00 0.00 0.00 0.00 0.00 0.00 0.00 0.00 0.00 0.00 0.00 0.01 0.01 0.01 0.01 0.01 0.01 0.02 0.01 0.01 0.01 0.01
0.01 0.00 0.00 0.00 0.00 0.00 0.00 0.00 0.00 0.00 0.00 0.00 0.00 0.00 0.00 0.00 0.00 0.00 0.00 0.00 0.00 0.00 0.00 0.00 0.00 0.00 0.00 0.00 0.00 0.00 0.00 0.00 0.00 0.00 0.01 0.01 0.01 0.02 0.02 0.02 0.01 0.01 0.01 0.01
0.01 0.00 0.00 0.00 0.00 0.00 0.00 0.00 0.00 0.00 0.00 0.00 0.00 0.00 0.00 0.00 0.00 0.00 0.00 0.00 0.00 0.00 0.00 0.00 0.00 0.00 0.00 0.00 0.00 0.00 0.00 0.00 0.00 0.00 0.01 0.01 0.01 0.02 0.02 0.02 0.01 0.01 0.01 0.01
0.01 0.01 0.01 0.00 0.00 0.00 0.00 0.00 0.00 0.00 0.00 0.00 0.00 0.00 0.00 0.00 0.00 0.00 0.00 0.00 0.00 0.00 0.00 0.00 0.00 0.00 0.00 0.00 0.00 0.00 0.00 0.00 0.00 0.00 0.01 0.01 0.01 0.01 0.01 0.01 0.01 0.01 0.01 0.01
0.00 0.00 0.00 0.00 0.00 0.00 0.00 0.00 0.00 0.00 0.00 0.00 0.00 0.00 0.00 0.00 0.00 0.00 0.00 0.00 0.00 0.00 0.00 0.00 0.00 0.00 0.00 0.00 0.00 0.00 0.00 0.00 0.00 0.00 0.00 0.01 0.01 0.01 0.00 0.01 0.01 0.01 0.01 0.01
0.00 0.00 0.01 0.00 0.00 0.00 0.00 0.00 0.00 0.00 0.00 0.00 0.00 0.00 0.00 0.00 0.00 0.00 0.00 0.00 0.00 0.00 0.00 0.00 0.00 0.00 0.00 0.00 0.00 0.01 0.00 0.00 0.00 0.00 0.01 0.01 0.01 0.01 0.00 0.00 0.01 0.01 0.01 0.01
0.00 0.00 0.00 0.00 0.00 0.00 0.00 0.00 0.00 0.00 0.00 0.00 0.00 0.00 0.00 0.00 0.00 0.00 0.00 0.00 0.00 0.00 0.00 0.00 0.00 0.00 0.00 0.01 0.01 0.01 0.01 0.01 0.00 0.00 0.01 0.01 0.01 0.01 0.01 0.00 0.01 0.01 0.01 0.01
0.00 0.00 0.00 0.00 0.00 0.00 0.00 0.00 0.00 0.00 0.00 0.00 0.00 0.00 0.00 0.00 0.00 0.00 0.00 0.00 0.00 0.00 0.00 0.00 0.00 0.00 0.00 0.01 0.01 0.01 0.01 0.01 0.01 0.01 0.01 0.01 0.01 0.01 0.01 0.01 0.01 0.01 0.01 0.01
0.00 0.00 0.00 0.00 0.00 0.00 0.00 0.00 0.00 0.00 0.00 0.00 0.00 0.00 0.00 0.00 0.00 0.00 0.00 0.00 0.00 0.00 0.00 0.00 0.00 0.00 0.00 0.01 0.01 0.01 0.01 0.01 0.01 0.01 0.01 0.01 0.01 0.01 0.01 0.01 0.01 0.01 0.01 0.01
0.00 0.00 0.01 0.01 0.00 0.00 0.00 0.00 0.00 0.00 0.00 0.00 0.00 0.00 0.00 0.00 0.00 0.00 0.00 0.00 0.00 0.00 0.00 0.00 0.00 0.01 0.01 0.01 0.01 0.01 0.01 0.01 0.01 0.01 0.01 0.01 0.01 0.02 0.02 0.01 0.01 0.01 0.01 0.01
0.01 0.01 0.01 0.01 0.01 0.00 0.00 0.00 0.00 0.00 0.00 0.00 0.00 0.00 0.00 0.00 0.00 0.00 0.00 0.00 0.01 0.01 0.00 0.00 0.00 0.00 0.00 0.00 0.01 0.02 0.02 0.01 0.01 0.01 0.01 0.01 0.01 0.01 0.01 0.01 0.01 0.01 0.01 0.01
0.00 0.00 0.00 0.00 0.00 0.00 0.00 0.00 0.00 0.00 0.00 0.00 0.00 0.00 0.00 0.00 0.00 0.00 0.00 0.00 0.00 0.01 0.00 0.00 0.00 0.00 0.00 0.00 0.01 0.01 0.01 0.02 0.01 0.01 0.01 0.00 0.00 0.01 0.01 0.01 0.01 0.01 0.01 0.01
0.00 0.00 0.00 0.00 0.00 0.00 0.00 0.00 0.00 0.00 0.00 0.00 0.00 0.00 0.00 0.00 0.00 0.00 0.00 0.00 0.00 0.00 0.00 0.00 0.00 0.00 0.00 0.00 0.00 0.01 0.01 0.01 0.01 0.01 0.01 0.01 0.01 0.01 0.01 0.01 0.01 0.01 0.01 0.01
0.00 0.00 0.00 0.00 0.00 0.00 0.00 0.00 0.00 0.00 0.00 0.00 0.00 0.00 0.00 0.00 0.00 0.00 0.00 0.00 0.00 0.00 0.00 0.00 0.00 0.00 0.00 0.00 0.00 0.00 0.01 0.01 0.01 0.01 0.01 0.01 0.01 0.01 0.01 0.01 0.01 0.01 0.01 0.01
0.00 0.00 0.00 0.00 0.00 0.00 0.00 0.00 0.00 0.00 0.00 0.00 0.00 0.00 0.00 0.00 0.01 0.01 0.01 0.00 0.00 0.00 0.00 0.00 0.00 0.00 0.00 0.00 0.00 0.00 0.00 0.01 0.01 0.01 0.01 0.01 0.01 0.01 0.01 0.01 0.01 0.01 0.01 0.01
0.00 0.00 0.00 0.00 0.00 0.00 0.00 0.00 0.00 0.00 0.00 0.00 0.01 0.01 0.01 0.01 0.01 0.01 0.01 0.01 0.01 0.01 0.01 0.00 0.00 0.00 0.00 0.00 0.00 0.00 0.00 0.00 0.00 0.01 0.01 0.01 0.01 0.01 0.01 0.01 0.01 0.01 0.01 0.01
0.00 0.00 0.00 0.00 0.00 0.00 0.00 0.00 0.00 0.00 0.01 0.01 0.01 0.00 0.00 0.01 0.01 0.01 0.01 0.01 0.01 0.01 0.01 0.01 0.00 0.00 0.00 0.00 0.00 0.00 0.00 0.00 0.00 0.00 0.00 0.00 0.01 0.01 0.01 0.01 0.01 0.01 0.01 0.01
0.00 0.00 0.00 0.00 0.00 0.00 0.00 0.00 0.00 0.01 0.01 0.01 0.01 0.00 0.00 0.00 0.00 0.01 0.01 0.01 0.01 0.01 0.01 0.01 0.00 0.00 0.00 0.00 0.00 0.00 0.00 0.00 0.00 0.00 0.00 0.00 0.00 0.00 0.01 0.01 0.01 0.01 0.01 0.01
0.00 0.00 0.00 0.00 0.00 0.00 0.00 0.00 0.01 0.01 0.01 0.01 0.00 0.00 0.00 0.00 0.00 0.01 0.01 0.01 0.01 0.01 0.01 0.01 0.01 0.00 0.00 0.00 0.00 0.00 0.00 0.00 0.00 0.00 0.00 0.00 0.00 0.00 0.00 0.01 0.01 0.01 0.01 0.01
MSLP
1021.10 1021.14 1021.13 1021.06 1020.92 1020.69 1020.36 1019.92 1019.39 1018.77 1018.10 1017.43 1016.78 1016.22 1015.75 1015.41 1015.19 1015.07 1015.03 1015.03 1015.03 1015.01 1014.94 1014.82 1014.67 1014.48 1014.30 1014.15 1014.05 1014.01 1014.05 1014.16 1014.34 1014.58 1014.87 1015.20 1015.55 1015.92 1016.29 1016.65 1016.99 1017.30 1017.56 1017.78
1021.02 1020.87 1020.63 1020.30 1019.90 1019.45 1018.95 1018.42 1017.89 1017.37 1016.88 1016.43 1016.05 1015.75 1015.53 1015.38 1015.29 1015.24 1015.21 1015.18 1015.12 1015.02 1014.87 1014.69 1014.47 1014.23 1014.00 1013.80 1013.63 1013.53 1013.50 1013.54 1013.66 1013.85 1014.11 1014.43 1014.79 1015.19 1015.60 1016.01 1016.41 1016.77 1017.09 1017.36
1020.89 1020.54 1020.07 1019.50 1018.87 1018.21 1017.57 1016.98 1016.47 1016.05 1015.72 1015.48 1015.34 1015.26 1015.23 1015.23 1015.24 1015.23 1015.21 1015.14 1015.03 1014.87 1014.67 1014.43 1014.17 1013.90 1013.64 1013.40 1013.19 1013.03 1012.94 1012.92 1012.97 1013.12 1013.35 1013.65 1014.03 1014.46 1014.92 1015.38 1015.84 1016.25 1016.62 1016.93
1020.69 1020.16 1019.49 1018.72 1017.90 1017.11 1016.38 1015.76 1015.29 1014.96 1014.77 1014.70 1014.72 1014.80 1014.90 1014.98 1015.04 1015.04 1014.99 1014.88 1014.72 1014.52 1014.28 1014.01 1013.74 1013.46 1013.18 1012.92 1012.69 1012.49 1012.35 1012.28 1012.29 1012.40 1012.60 1012.91 1013.30 1013.76 1014.26 1014.78 1015.28 1015.75 1016.15 1016.50
1020.40 1019.72 1018.90 1017.99 1017.07 1016.19 1015.44 1014.83 1014.41 1014.17 1014.09 1014.13 1014.26 1014.42 1014.57 1014.68 1014.72 1014.69 1014.58 1014.41 1014.20 1013.96 1013.70 1013.43 1013.16 1012.89 1012.63 1012.37 1012.13 1011.92 1011.75 1011.65 1011.63 1011.71 1011.91 1012.22 1012.63 1013.12 1013.66 1014.22 1014.76 1015.26 1015.70 1016.06
1019.94 1019.16 1018.26 1017.29 1016.34 1015.47 1014.74 1014.20 1013.85 1013.69 1013.69 1013.81 1013.98 1014.15 1014.28 1014.35 1014.32 1014.21 1014.03 1013.79 1013.53 1013.25 1012.98 1012.72 1012.48 1012.24 1012.00 1011.77 1011.54 1011.33 1011.16 1011.04 1011.02 1011.10 1011.30 1011.62 1012.05 1012.56 1013.13 1013.72 1014.28 1014.80 1015.25 1015.63
1019.26 1018.44 1017.53 1016.58 1015.67 1014.88 1014.24 1013.80 1013.55 1013.47 1013.53 1013.68 1013.84 1013.98 1014.05 1014.03 1013.91 1013.70 1013.43 1013.12 1012.80 1012.50 1012.22 1011.98 1011.76 1011.56 1011.36 1011.16 1010.96 1010.77 1010.60 1010.50 1010.48 1010.56 1010.77 1011.11 1011.56 1012.09 1012.67 1013.27 1013.84 1014.36 1014.81 1015.18
1018.32 1017.53 1016.67 1015.81 1015.03 1014.37 1013.87 1013.56 1013.43 1013.44 1013.54 1013.69 1013.83 1013.91 1013.89 1013.76 1013.53 1013.22 1012.86 1012.48 1012.12 1011.80 1011.53 1011.31 1011.12 1010.95 1010.78 1010.61 1010.43 1010.26 1010.12 1010.03 1010.02 1010.12 1010.34 1010.69 1011.15 1011.68 1012.27 1012.86 1013.42 1013.92 1014.35 1014.71
1017.19 1016.46 1015.71 1015.00 1014.38 1013.90 1013.58 1013.42 1013.40 1013.49 1013.64 1013.79 1013.89 1013.90 1013.79 1013.57 1013.25 1012.85 1012.43 1012.00 1011.61 1011.27 1011.00 1010.78 1010.60 1010.45 1010.30 1010.14 1009.98 1009.83 1009.70 1009.62 1009.63 1009.75 1009.99 1010.34 1010.80 1011.33 1011.90 1012.46 1013.00 1013.47 1013.87 1014.20
1015.95 1015.33 1014.72 1014.19 1013.76 1013.47 1013.33 1013.32 1013.42 1013.59 1013.77 1013.92 1013.99 1013.94 1013.76 1013.47 1013.09 1012.64 1012.17 1011.71 1011.30 1010.95 1010.67 1010.45 1010.27 1010.10 1009.95 1009.78 1009.62 1009.46 1009.33 1009.27 1009.29 1009.42 1009.67 1010.03 1010.49 1011.00 1011.54 1012.07 1012.56 1012.99 1013.35 1013.65
1014.77 1014.27 1013.83 1013.47 1013.23 1013.12 1013.14 1013.26 1013.46 1013.69 1013.90 1014.04 1014.08 1014.00 1013.79 1013.46 1013.05 1012.58 1012.09 1011.63 1011.21 1010.86 1010.56 1010.31 1010.10 1009.90 1009.71 1009.51 1009.32 1009.14 1009.01 1008.94 1008.97 1009.12 1009.37 1009.73 1010.18 1010.67 1011.18 1011.67 1012.12 1012.50 1012.82 1013.08
1013.82 1013.44 1013.14 1012.95 1012.87 1012.90 1013.04 1013.26 1013.53 1013.79 1014.01 1014.14 1014.16 1014.06 1013.84 1013.50 1013.09 1012.63 1012.16 1011.71 1011.30 1010.93 1010.61 1010.32 1010.06 1009.80 1009.55 1009.29 1009.05 1008.84 1008.69 1008.62 1008.65 1008.80 1009.07 1009.43 1009.87 1010.35 1010.83 1011.28 1011.68 1012.02 1012.29 1012.53
1013.20 1012.94 1012.77 1012.70 1012.73 1012.87 1013.08 1013.35 1013.63 1013.89 1014.10 1014.21 1014.21 1014.10 1013.87 1013.56 1013.17 1012.74 1012.30 1011.87 1011.47 1011.09 1010.74 1010.40 1010.07 1009.74 1009.41 1009.09 1008.79 1008.54 1008.36 1008.29 1008.32 1008.48 1008.76 1009.13 1009.56 1010.03 1010.49 1010.91 1011.28 1011.58 1011.83 1012.05
1012.96 1012.80 1012.73 1012.74 1012.85 1013.03 1013.27 1013.53 1013.79 1014.01 1014.17 1014.24 1014.21 1014.08 1013.86 1013.56 1013.21 1012.82 1012.42 1012.02 1011.62 1011.23 1010.85 1010.47 1010.07 1009.67 1009.27 1008.88 1008.53 1008.24 1008.05 1007.97 1008.01 1008.18 1008.47 1008.85 1009.29 1009.75 1010.20 1010.60 1010.95 1011.24 1011.48 1011.69
1013.07 1012.99 1012.98 1013.05 1013.17 1013.35 1013.56 1013.78 1013.97 1014.12 1014.21 1014.22 1014.14 1013.99 1013.76 1013.48 1013.16 1012.80 1012.44 1012.07 1011.68 1011.29 1010.89 1010.46 1010.02 1009.56 1009.11 1008.67 1008.29 1007.98 1007.77 1007.69 1007.75 1007.93 1008.24 1008.63 1009.08 1009.54 1009.99 1010.39 1010.74 1011.03 1011.26 1011.48
1013.42 1013.40 1013.43 1013.51 1013.62 1013.76 1013.91 1014.04 1014.14 1014.20 1014.19 1014.12 1013.99 1013.80 1013.56 1013.28 1012.98 1012.66 1012.32 1011.98 1011.61 1011.23 1010.82 1010.38 1009.91 1009.43 1008.94 1008.49 1008.09 1007.78 1007.58 1007.51 1007.58 1007.78 1008.10 1008.50 1008.96 1009.43 1009.88 1010.29 1010.65 1010.95 1011.21 1011.45
1013.87 1013.89 1013.93 1014.00 1014.08 1014.17 1014.23 1014.27 1014.26 1014.21 1014.10 1013.95 1013.74 1013.50 1013.24 1012.96 1012.66 1012.36 1012.06 1011.74 1011.41 1011.05 1010.65 1010.23 1009.77 1009.29 1008.82 1008.37 1007.99 1007.69 1007.51 1007.46 1007.54 1007.75 1008.07 1008.48 1008.94 1009.41 1009.87 1010.29 1010.67 1011.00 1011.30 1011.59
1014.29 1014.32 1014.37 1014.41 1014.45 1014.46 1014.44 1014.38 1014.27 1014.12 1013.91 1013.67 1013.40 1013.11 1012.82 1012.52 1012.24 1011.96 1011.68 1011.40 1011.10 1010.78 1010.43 1010.04 1009.63 1009.20 1008.76 1008.36 1008.01 1007.75 1007.59 1007.56 1007.64 1007.85 1008.17 1008.57 1009.02 1009.49 1009.95 1010.39 1010.79 1011.16 1011.51 1011.84
1014.56 1014.60 1014.63 1014.65 1014.64 1014.58 1014.49 1014.35 1014.15 1013.91 1013.63 1013.31 1012.98 1012.65 1012.33 1012.02 1011.74 1011.48 1011.23 1010.99 1010.74 1010.48 1010.19 1009.88 1009.53 1009.17 1008.81 1008.47 1008.18 1007.95 1007.82 1007.80 1007.89 1008.09 1008.38 1008.75 1009.18 1009.64 1010.10 1010.55 1010.98 1011.40 1011.80 1012.20
1014.66 1014.68 1014.69 1014.67 1014.62 1014.52 1014.36 1014.16 1013.90 1013.59 1013.25 1012.89 1012.52 1012.16 1011.82 1011.50 1011.23 1010.98 1010.77 1010.57 1010.39 1010.19 1009.98 1009.75 1009.50 1009.23 1008.95 1008.68 1008.45 1008.28 1008.17 1008.16 1008.24 1008.41 1008.67 1009.01 1009.40 1009.84 1010.29 1010.76 1011.22 1011.68 1012.14 1012.60
1014.58 1014.58 1014.56 1014.50 1014.41 1014.27 1014.08 1013.84 1013.54 1013.20 1012.84 1012.44 1012.05 1011.68 1011.33 1011.02 1010.75 1010.53 1010.35 1010.20 1010.07 1009.95 1009.82 1009.68 1009.52 1009.34 1009.16 1008.97 1008.80 1008.67 1008.59 1008.58 1008.65 1008.79 1009.02 1009.32 1009.68 1010.09 1010.54 1011.02 1011.51 1012.02 1012.53 1013.05
1014.36 1014.32 1014.27 1014.19 1014.07 1013.91 1013.70 1013.44 1013.13 1012.78 1012.40 1012.01 1011.62 1011.24 1010.90 1010.60 1010.35 1010.15 1010.00 1009.89 1009.82 1009.76 1009.71 1009.65 1009.58 1009.49 1009.39 1009.28 1009.17 1009.08 1009.03 1009.03 1009.08 1009.20 1009.40 1009.67 1010.00 1010.40 1010.85 1011.34 1011.86 1012.41 1012.97 1013.54
1014.03 1013.96 1013.88 1013.78 1013.65 1013.48 1013.26 1013.00 1012.70 1012.36 1012.00 1011.62 1011.24 1010.88 1010.54 1010.26 1010.02 1009.84 1009.72 1009.64 1009.61 1009.61 1009.62 1009.63 1009.64 1009.62 1009.60 1009.56 1009.51 1009.47 1009.45 1009.46 1009.52 1009.64 1009.82 1010.07 1010.40 1010.79 1011.24 1011.74 1012.29 1012.87 1013.47 1014.07
1013.61 1013.52 1013.43 1013.31 1013.17 1013.00 1012.80 1012.56 1012.28 1011.96 1011.62 1011.27 1010.91 1010.57 1010.26 1009.99 1009.76 1009.60 1009.49 1009.44 1009.44 1009.47 1009.53 1009.60 1009.66 1009.72 1009.76 1009.78 1009.80 1009.81 1009.83 1009.88 1009.96 1010.08 1010.28 1010.54 1010.87 1011.26 1011.73 1012.25 1012.81 1013.41 1014.02 1014.64
1013.12 1013.02 1012.91 1012.80 1012.67 1012.51 1012.32 1012.11 1011.86 1011.57 1011.27 1010.95 1010.62 1010.31 1010.01 1009.76 1009.55 1009.39 1009.30 1009.26 1009.27 1009.33 1009.42 1009.52 1009.64 1009.75 1009.85 1009.94 1010.02 1010.09 1010.17 1010.27 1010.39 1010.56 1010.78 1011.07 1011.42 1011.84 1012.31 1012.84 1013.41 1014.01 1014.61 1015.21
1012.53 1012.43 1012.34 1012.23 1012.12 1011.98 1011.82 1011.64 1011.42 1011.17 1010.90 1010.62 1010.32 1010.04 1009.76 1009.52 1009.33 1009.18 1009.09 1009.06 1009.08 1009.15 1009.26 1009.40 1009.56 1009.72 1009.88 1010.03 1010.18 1010.33 1010.48 1010.65 1010.84 1011.06 1011.33 1011.66 1012.04 1012.48 1012.96 1013.49 1014.05 1014.62 1015.19 1015.75
1011.83 1011.75 1011.68 1011.59 1011.50 1011.39 1011.26 1011.11 1010.93 1010.72 1010.48 1010.23 1009.97 1009.71 1009.46 1009.24 1009.06 1008.92 1008.83 1008.81 1008.84 1008.92 1009.05 1009.22 1009.42 1009.63 1009.85 1010.07 1010.30 1010.53 1010.76 1011.01 1011.28 1011.57 1011.90 1012.27 1012.68 1013.13 1013.61 1014.12 1014.65 1015.17 1015.68 1016.17
Thickness
5495 5499 5496 5498 5501 5494 5491 5494 5496 5509 5510 5528 5524 5521 5519 5518 5517 5516 5515 5514 5513 5510 5508 5507 5506 5504 5503 5502 5501 5499 5497 5495 5493 5492 5490 5488 5486 5485 5483 5481 5479 5477 5476 5475
5488 5492 5487 5491 5500 5496 5495 5496 5496 5502 5511 5520 5514 5510 5508 5507 5507 5507 5507 5507 5505 5504 5501 5499 5497 5496 5494 5493 5492 5489 5487 5486 5485 5482 5480 5478 5477 5474 5472 5470 5468 5466 5465 5464
5477 5480 5483 5490 5506 5502 5496 5496 5496 5498 5510 5509 5505 5504 5502 5500 5499 5498 5499 5498 5497 5495 5493 5491 5489 5487 5485 5484 5482 5480 5478 5476 5474 5472 5470 5468 5467 5464 5462 5460 5458 5457 5456 5455
5464 5467 5473 5510 5508 5504 5498 5497 5492 5496 5498 5496 5496 5496 5494 5492 5490 5489 5489 5489 5488 5486 5484 5482 5480 5478 5476 5474 5472 5470 5468 5466 5464 5462 5461 5459 5456 5454 5453 5451 5449 5448 5447 5446
5454 5454 5470 5492 5497 5491 5486 5489 5489 5487 5488 5486 5484 5484 5484 5486 5484 5482 5481 5480 5478 5476 5475 5473 5470 5468 5466 5464 5462 5460 5459 5457 5455 5453 5452 5450 5448 5446 5444 5442 5441 5439 5438 5437
5445 5448 5459 5491 5490 5484 5482 5481 5487 5480 5478 5475 5473 5471 5477 5480 5475 5473 5471 5470 5468 5467 5465 5462 5461 5458 5455 5454 5452 5451 5450 5449 5447 5445 5443 5442 5441 5439 5436 5434 5433 5431 5430 5429
5438 5440 5456 5474 5474 5473 5468 5477 5477 5472 5470 5466 5463 5466 5469 5468 5466 5464 5462 5460 5459 5457 5454 5453 5450 5447 5445 5443 5443 5443 5441 5439 5438 5436 5435 5434 5432 5430 5428 5426 5424 5423 5422 5421
5429 5430 5451 5466 5459 5458 5463 5465 5464 5462 5460 5457 5456 5456 5456 5456 5455 5454 5451 5450 5449 5445 5444 5442 5439 5436 5435 5434 5435 5433 5431 5429 5428 5427 5426 5426 5423 5422 5420 5418 5416 5414 5413 5412
5436 5450 5456 5452 5452 5453 5450 5449 5450 5449 5450 5447 5445 5445 5446 5445 5444 5442 5441 5439 5437 5435 5433 5431 5429 5426 5425 5426 5424 5423 5421 5420 5419 5418 5417 5417 5415 5414 5412 5410 5408 5407 5405 5405
5421 5434 5439 5439 5439 5440 5439 5438 5439 5439 5438 5436 5434 5435 5433 5433 5432 5431 5430 5428 5426 5424 5422 5422 5420 5418 5416 5416 5415 5413 5411 5411 5410 5409 5409 5408 5407 5406 5405 5403 5402 5401 5399 5399
5412 5423 5425 5433 5432 5432 5430 5428 5427 5427 5426 5424 5423 5423 5422 5422 5421 5419 5419 5417 5415 5413 5413 5413 5412 5410 5409 5407 5405 5403 5403 5402 5402 5401 5401 5400 5399 5399 5399 5398 5397 5396 5395 5394
5415 5420 5416 5422 5425 5422 5419 5418 5418 5416 5415 5414 5412 5411 5411 5410 5409 5408 5407 5406 5404 5403 5403 5403 5402 5402 5401 5399 5397 5395 5395 5394 5393 5393 5392 5392 5391 5391 5392 5391 5392 5391 5390 5388
5411 5412 5409 5411 5411 5410 5409 5408 5407 5406 5404 5403 5403 5401 5400 5399 5399 5397 5396 5395 5394 5395 5395 5394 5394 5394 5394 5392 5390 5388 5387 5387 5386 5385 5385 5384 5383 5383 5383 5384 5384 5383 5383 5382
5398 5396 5396 5399 5398 5399 5397 5397 5396 5395 5394 5393 5392 5390 5389 5388 5388 5387 5387 5387 5386 5386 5386 5385 5385 5386 5386 5384 5383 5382 5381 5381 5380 5379 5378 5378 5377 5377 5376 5376 5375 5374 5374 5374
5387 5385 5386 5387 5386 5385 5384 5383 5383 5383 5382 5382 5381 5380 5379 5378 5379 5379 5379 5378 5377 5377 5377 5377 5377 5379 5378 5377 5376 5376 5375 5374 5373 5372 5372 5371 5371 5370 5369 5369 5368 5367 5366 5366
5375 5374 5374 5373 5374 5374 5373 5372 5372 5373 5373 5372 5371 5371 5370 5370 5370 5371 5370 5369 5368 5369 5370 5370 5370 5371 5370 5369 5369 5369 5369 5369 5368 5366 5365 5364 5364 5363 5363 5362 5361 5360 5359 5359
5362 5363 5363 5362 5363 5363 5363 5362 5363 5363 5363 5362 5363 5363 5362 5361 5361 5362 5362 5361 5361 5362 5363 5362 5363 5363 5362 5362 5361 5361 5361 5362 5362 5360 5359 5358 5358 5357 5357 5356 5355 5355 5354 5353
5354 5354 5353 5352 5352 5352 5353 5353 5353 5353 5353 5354 5354 5354 5353 5353 5353 5355 5355 5354 5353 5354 5355 5354 5354 5355 5355 5355 5354 5354 5354 5354 5353 5352 5352 5351 5351 5351 5350 5350 5349 5348 5347 5346
5345 5344 5343 5344 5343 5343 5343 5344 5344 5344 5345 5345 5344 5345 5346 5346 5346 5347 5346 5345 5346 5347 5349 5349 5349 5348 5347 5348 5348 5346 5346 5346 5346 5345 5345 5345 5345 5344 5343 5342 5342 5341 5341 5340
5336 5336 5335 5335 5335 5335 5335 5336 5336 5336 5337 5336 5336 5336 5337 5339 5339 5338 5337 5338 5341 5341 5342 5342 5341 5341 5340 5340 5340 5339 5338 5338 5338 5337 5337 5336 5336 5336 5336 5336 5335 5334 5334 5333
5327 5327 5327 5327 5327 5327 5327 5327 5327 5328 5329 5329 5328 5329 5330 5332 5331 5330 5330 5333 5337 5336 5335 5336 5335 5334 5334 5334 5334 5332 5331 5331 5330 5330 5330 5329 5329 5329 5329 5329 5328 5328 5327 5326
5318 5318 5319 5319 5319 5320 5321 5321 5320 5321 5322 5322 5323 5322 5322 5323 5324 5324 5325 5327 5330 5330 5330 5329 5329 5329 5328 5328 5327 5326 5325 5324 5324 5324 5323 5323 5322 5322 5322 5322 5321 5320 5319 5318
5310 5310 5311 5312 5312 5313 5314 5314 5314 5314 5315 5316 5316 5317 5316 5317 5317 5317 5320 5323 5322 5323 5323 5323 5323 5323 5323 5322 5321 5320 5319 5318 5318 5318 5317 5317 5316 5316 5315 5315 5314 5313 5312 5311
5303 5304 5304 5305 5304 5304 5306 5309 5309 5309 5309 5310 5311 5312 5311 5311 5312 5313 5314 5316 5317 5317 5316 5317 5318 5318 5317 5315 5314 5314 5313 5312 5312 5311 5311 5310 5309 5309 5308 5307 5307 5306 5305 5303
5297 5296 5296 5296 5297 5300 5301 5302 5302 5303 5303 5304 5306 5307 5306 5306 5306 5308 5308 5309 5311 5310 5310 5310 5311 5311 5309 5308 5307 5307 5306 5306 5305 5305 5304 5303 5303 5302 5301 5301 5300 5299 5298 5297
5290 5291 5292 5293 5294 5294 5295 5295 5295 5297 5298 5299 5302 5302 5302 5301 5301 5301 5302 5302 5303 5304 5303 5303 5303 5303 5301 5301 5300 5300 5300 5300 5299 5299 5298 5297 5297 5296 5295 5294 5293 5292 5291 5290
5286 5286 5287 5288 5290 5289 5289 5289 5290 5292 5293 5293 5295 5297 5296 5296 5296 5295 5295 5296 5296 5296 5296 5296 5296 5295 5295 5294 5294 5294 5293 5293 5293 5292 5292 5291 5291 5290 5289 5288 5287 5286 5285 5284